TimeEST,TemperatureF,Dew PointF,Humidity,Sea Level PressureIn,VisibilityMPH,Wind Direction,Wind SpeedMPH,Gust SpeedMPH,PrecipitationIn,Events,Conditions,WindDirDegrees,DateUTC
12:15 AM,64.4,64.4,100,29.99,7.0,SW,6.9,-,N/A,,Overcast,230,2012-11-05 05:15:00
12:35 AM,64.4,64.4,100,29.99,7.0,SW,6.9,-,N/A,,Mostly Cloudy,230,2012-11-05 05:35:00
12:55 AM,64.4,64.4,100,29.98,7.0,SW,5.8,-,N/A,,Mostly Cloudy,230,2012-11-05 05:55:00
1:15 AM,66.2,64.4,94,29.98,8.0,SW,6.9,-,N/A,,Mostly Cloudy,220,2012-11-05 06:15:00
1:35 AM,66.2,64.4,94,29.98,9.0,WSW,4.6,-,N/A,,Mostly Cloudy,240,2012-11-05 06:35:00
1:55 AM,66.2,64.4,94,29.98,10.0,WSW,5.8,-,N/A,,Overcast,240,2012-11-05 06:55:00
2:15 AM,66.2,64.4,94,29.98,10.0,West,4.6,-,N/A,,Mostly Cloudy,260,2012-11-05 07:15:00
2:35 AM,66.2,64.4,94,29.97,10.0,SW,4.6,-,N/A,,Scattered Clouds,220,2012-11-05 07:35:00
2:55 AM,64.4,64.4,100,29.97,7.0,WSW,3.5,-,N/A,,Clear,250,2012-11-05 07:55:00
3:15 AM,64.4,64.4,100,29.97,7.0,WSW,3.5,-,N/A,,Clear,250,2012-11-05 08:15:00
3:35 AM,64.4,64.4,100,29.97,5.0,SW,4.6,-,N/A,,Clear,220,2012-11-05 08:35:00
3:55 AM,62.6,62.6,100,29.97,3.0,Calm,Calm,-,N/A,,Clear,0,2012-11-05 08:55:00
4:15 AM,62.6,62.6,100,29.97,3.0,Calm,Calm,-,N/A,,Clear,0,2012-11-05 09:15:00
4:35 AM,60.8,60.8,100,29.97,1.5,Calm,Calm,-,N/A,,Clear,0,2012-11-05 09:35:00
4:55 AM,59.0,59.0,100,29.97,1.2,Calm,Calm,-,N/A,,Clear,0,2012-11-05 09:55:00
5:15 AM,59.0,59.0,100,29.98,0.2,Calm,Calm,-,N/A,Fog,Fog,0,2012-11-05 10:15:00
6:50 AM,60.8,60.8,100,29.99,4.0,Calm,Calm,-,N/A,,Clear,0,2012-11-05 11:50:00
7:50 AM,60.8,60.8,100,30.01,10.0,NNW,4.6,-,N/A,,Clear,340,2012-11-05 12:50:00
8:50 AM,64.4,57.2,77,30.02,10.0,NNW,8.1,-,N/A,,Clear,330,2012-11-05 13:50:00
10:50 AM,68.0,53.6,60,30.02,10.0,NNW,5.8,-,N/A,,Clear,340,2012-11-05 15:50:00
11:50 AM,71.6,48.2,43,30.00,10.0,NW,5.8,-,N/A,,Clear,320,2012-11-05 16:50:00
12:50 PM,73.4,46.4,38,29.97,10.0,NW,4.6,-,N/A,,Clear,320,2012-11-05 17:50:00
1:50 PM,73.4,44.6,36,29.95,10.0,North,6.9,-,N/A,,Clear,350,2012-11-05 18:50:00
2:50 PM,73.4,41.0,31,29.95,10.0,NW,5.8,-,N/A,,Clear,320,2012-11-05 19:50:00
3:50 PM,73.4,42.8,33,29.95,10.0,NNE,6.9,-,N/A,,Clear,20,2012-11-05 20:50:00
4:50 PM,71.6,44.6,38,29.95,10.0,NNW,4.6,-,N/A,,Clear,330,2012-11-05 21:50:00
5:50 PM,64.4,55.4,73,29.97,10.0,NE,10.4,-,N/A,,Clear,40,2012-11-05 22:50:00
6:50 PM,59.0,55.4,88,29.99,10.0,NNE,10.4,-,N/A,,Clear,30,2012-11-05 23:50:00
7:50 PM,57.2,53.6,88,30.00,9.0,ENE,3.5,-,N/A,,Clear,60,2012-11-06 00:50:00
7:55 PM,55.4,53.6,94,30.00,9.0,Calm,Calm,-,N/A,,Clear,0,2012-11-06 00:55:00
8:15 PM,53.6,51.8,94,30.00,7.0,Calm,Calm,-,N/A,,Clear,0,2012-11-06 01:15:00
8:35 PM,51.8,50.0,94,30.01,7.0,Calm,Calm,-,N/A,,Clear,0,2012-11-06 01:35:00
8:55 PM,50.0,50.0,100,30.01,6.0,Calm,Calm,-,N/A,,Clear,0,2012-11-06 01:55:00
9:15 PM,50.0,50.0,100,30.01,6.0,Calm,Calm,-,N/A,,Clear,0,2012-11-06 02:15:00
9:35 PM,50.0,50.0,100,30.01,2.5,Calm,Calm,-,N/A,,Clear,0,2012-11-06 02:35:00
9:55 PM,50.0,50.0,100,30.00,5.0,Calm,Calm,-,N/A,,Clear,0,2012-11-06 02:55:00
10:15 PM,48.2,48.2,100,29.99,5.0,Calm,Calm,-,N/A,,Clear,0,2012-11-06 03:15:00
10:35 PM,48.2,48.2,100,29.99,1.2,Calm,Calm,-,N/A,,Clear,0,2012-11-06 03:35:00
10:55 PM,48.2,48.2,100,29.98,3.0,Calm,Calm,-,N/A,,Clear,0,2012-11-06 03:55:00
11:15 PM,48.2,48.2,100,29.97,4.0,Calm,Calm,-,N/A,,Clear,0,2012-11-06 04:15:00
11:35 PM,46.4,46.4,100,29.97,3.0,Calm,Calm,-,N/A,,Clear,0,2012-11-06 04:35:00
11:55 PM,46.4,46.4,100,29.97,5.0,Calm,Calm,-,N/A,,Clear,0,2012-11-06 04:55:00